Weather History for Antigo, WI

Change the Weather History Date:

Monday, October 29, 2012

  Actual Average Record
Temperature  
Mean Temperature 34 °F -  
Max Temperature 45 °F 50 °F 74 °F (1950)
Min Temperature 22 °F 30 °F 16 °F (1988)
Degree Days  
Heating Degree Days 32    
Moisture  
Dew Point 25 °F    
Average Humidity 75    
Maximum Humidity 96    
Minimum Humidity 43    
Precipitation  
Precipitation 0.00 in - - ()
Sea Level Pressure  
Sea Level Pressure 30.30 in    
Wind  
Wind Speed 2 mph (NNE)    
Max Wind Speed 10 mph    
Max Gust Speed -    
Visibility 10 miles    
Events      
Averages and records for this station are not official NWS values.
T = Trace of Precipitation, MM = Missing Value Source: NWS Daily Summary

Daily Weather History Graph

Daily Weather History Graph

Search for Another Location

Airport:

Trip Planner

Search our weather history database for the weather conditions in past years. The results will help you decide how hot, cold, wet, or windy it might be!

Date:

Astronomy

Oct. 29, 2012 Rise Set
Actual Time 7:31 AM CDT 5:47 PM CDT
Civil Twilight 7:01 AM CDT 6:18 PM CDT
Nautical Twilight 6:26 AM CDT 6:52 PM CDT
Astronomical Twilight 5:52 AM CDT 7:27 PM CDT
Moon 5:37 PM CDT (10/29) 7:23 AM CDT (10/29)
Length of Visible Light 11h 17m
Length of Day
10h 16m
Full, 100% of the Moon is Illuminated
Oct 29
Full
Oct 29
Full
Nov 6
Last Quarter
Nov 13
New
Nov 20
First Quarter

Hourly Weather History & Observations

Time (CDT) Temp. Windchill Dew Point Humidity Pressure Visibility Wind Dir Wind Speed Gust Speed Precip Events Conditions
12:15 AM 25.3 °F - 23.7 °F 94% 30.32 in 10.0 mi Calm Calm - N/A   Clear
12:35 AM 26.6 °F - 25.0 °F 94% 30.32 in 10.0 mi Calm Calm - N/A   Clear
12:55 AM 27.0 °F 21.6 °F 25.3 °F 94% 30.32 in 10.0 mi ENE 4.6 mph - N/A   Clear
1:15 AM 27.5 °F - 25.9 °F 94% 30.32 in 10.0 mi Calm Calm - N/A   Clear
1:35 AM 27.5 °F - 25.7 °F 93% 30.32 in 10.0 mi Calm Calm - N/A   Clear
1:55 AM 27.5 °F - 24.6 °F 89% 30.32 in 10.0 mi Calm Calm - N/A   Clear
2:15 AM 27.5 °F - 23.9 °F 86% 30.33 in 10.0 mi Calm Calm - N/A   Clear
2:35 AM 27.5 °F - 23.5 °F 85% 30.33 in 10.0 mi Calm Calm - N/A   Clear
2:55 AM 27.5 °F - 23.4 °F 84% 30.33 in 10.0 mi Calm Calm - N/A   Clear
3:15 AM 26.4 °F - 24.1 °F 91% 30.33 in 10.0 mi Calm Calm - N/A   Clear
3:35 AM 26.8 °F - 24.1 °F 90% 30.33 in 10.0 mi Calm Calm - N/A   Clear
3:55 AM 24.4 °F - 21.7 °F 89% 30.33 in 10.0 mi Calm Calm - N/A   Clear
4:15 AM 25.9 °F 20.3 °F 22.3 °F 86% 30.33 in 10.0 mi North 4.6 mph - N/A   Clear
4:35 AM 24.4 °F 20.1 °F 21.7 °F 89% 30.33 in 10.0 mi North 3.5 mph - N/A   Clear
4:55 AM 23.9 °F 19.5 °F 21.4 °F 90% 30.34 in 10.0 mi North 3.5 mph - N/A   Clear
5:15 AM 24.8 °F - 22.5 °F 91% 30.33 in 10.0 mi Calm Calm - N/A   Clear
5:55 AM 24.8 °F - 23.2 °F 94% 30.34 in 10.0 mi Calm Calm - N/A   Clear
6:15 AM 25.0 °F 20.7 °F 23.0 °F 92% 30.34 in 10.0 mi NE 3.5 mph - N/A   Clear
6:35 AM 23.2 °F - 21.4 °F 93% 30.34 in 10.0 mi Calm Calm - N/A   Clear
6:55 AM 22.8 °F - 21.2 °F 93% 30.35 in 10.0 mi Calm Calm - N/A   Clear
7:15 AM 23.7 °F - 22.6 °F 96% 30.35 in 10.0 mi Calm Calm - N/A   Clear
7:35 AM 22.8 °F - 21.6 °F 95% 30.35 in 10.0 mi Calm Calm - N/A   Clear
7:55 AM 24.1 °F 19.7 °F 22.6 °F 94% 30.36 in 10.0 mi NE 3.5 mph - N/A   Clear
8:15 AM 25.5 °F 21.3 °F 23.7 °F 93% 30.36 in 10.0 mi NNE 3.5 mph - N/A   Clear
8:35 AM 27.3 °F 23.4 °F 24.8 °F 90% 30.36 in 10.0 mi NNE 3.5 mph - N/A   Clear
8:55 AM 29.1 °F - 26.2 °F 89% 30.35 in 10.0 mi Calm Calm - N/A   Clear
9:35 AM 31.5 °F - 27.5 °F 85% 30.35 in 10.0 mi Calm Calm - N/A   Clear
9:55 AM 33.4 °F - 27.1 °F 78% 30.35 in 10.0 mi Calm Calm - N/A   Clear
10:15 AM 34.2 °F - 28.6 °F 80% 30.35 in 10.0 mi Calm Calm - N/A   Clear
10:35 AM 35.4 °F 32.6 °F 28.6 °F 76% 30.35 in 10.0 mi North 3.5 mph - N/A   Clear
10:55 AM 37.6 °F 33.1 °F 26.4 °F 64% 30.34 in 10.0 mi NNE 5.8 mph - N/A   Clear
11:15 AM 38.8 °F 35.4 °F 26.2 °F 61% 30.34 in 10.0 mi NE 4.6 mph - N/A   Clear
11:35 AM 39.7 °F 34.9 °F 24.8 °F 55% 30.34 in 10.0 mi NNE 6.9 mph - N/A   Clear
11:55 AM 40.8 °F 36.9 °F 24.4 °F 52% 30.33 in 10.0 mi North 5.8 mph - N/A   Clear
12:15 PM 41.5 °F 38.6 °F 23.7 °F 49% 30.33 in 10.0 mi NNE 4.6 mph - N/A   Clear
12:55 PM 42.4 °F 38.1 °F 22.1 °F 44% 30.31 in 10.0 mi NNE 6.9 mph - N/A   Clear
1:35 PM 43.7 °F 41.1 °F 23.2 °F 44% 30.30 in 10.0 mi NNW 4.6 mph - N/A   Clear
1:55 PM 43.7 °F 39.7 °F 23.4 °F 45% 30.29 in 10.0 mi North 6.9 mph - N/A   Clear
2:15 PM 44.1 °F 40.8 °F 23.4 °F 44% 30.28 in 10.0 mi NNW 5.8 mph - N/A   Clear
2:35 PM 44.6 °F 43.1 °F 23.2 °F 43% 30.28 in 10.0 mi NE 3.5 mph - N/A   Clear
3:35 PM 45.0 °F 40.1 °F 24.3 °F 44% 30.28 in 10.0 mi North 9.2 mph - N/A   Clear
3:55 PM 44.8 °F 41.0 °F 23.7 °F 44% 30.27 in 10.0 mi North 6.9 mph - N/A   Clear
4:15 PM 44.6 °F 40.2 °F 23.4 °F 43% 30.27 in 10.0 mi North 8.1 mph - N/A   Clear
4:35 PM 44.2 °F 39.2 °F 24.8 °F 46% 30.27 in 10.0 mi North 9.2 mph - N/A   Clear
4:55 PM 43.7 °F 39.1 °F 24.4 °F 47% 30.26 in 10.0 mi North 8.1 mph - N/A   Clear
5:15 PM 42.4 °F 36.5 °F 24.8 °F 50% 30.26 in 10.0 mi North 10.4 mph - N/A   Clear
5:35 PM 41.4 °F 36.2 °F 24.8 °F 52% 30.26 in 10.0 mi North 8.1 mph - N/A   Clear
5:55 PM 38.7 °F 33.6 °F 27.0 °F 63% 30.26 in 10.0 mi North 6.9 mph - N/A   Clear
6:15 PM 37.0 °F 31.6 °F 27.0 °F 67% 30.25 in 10.0 mi North 6.9 mph - N/A   Clear
6:35 PM 36.5 °F 32.7 °F 26.2 °F 66% 30.26 in 10.0 mi North 4.6 mph - N/A   Clear
6:55 PM 35.4 °F 30.5 °F 26.6 °F 70% 30.25 in 10.0 mi North 5.8 mph - N/A   Clear
7:15 PM 34.7 °F 30.6 °F 26.8 °F 73% 30.25 in 10.0 mi North 4.6 mph - N/A   Clear
7:35 PM 34.7 °F 30.6 °F 27.0 °F 73% 30.25 in 10.0 mi North 4.6 mph - N/A   Clear
7:55 PM 33.6 °F 28.4 °F 27.1 °F 77% 30.25 in 10.0 mi North 5.8 mph - N/A   Clear
10:35 PM 32.0 °F 27.5 °F 25.5 °F 77% 30.22 in 10.0 mi North 4.6 mph - N/A   Clear
10:55 PM 31.1 °F 26.4 °F 25.7 °F 80% 30.21 in 10.0 mi North 4.6 mph - N/A   Clear
11:15 PM 32.0 °F 26.4 °F 25.9 °F 78% 30.20 in 10.0 mi NNE 5.8 mph - N/A   Clear
11:35 PM 32.0 °F 26.4 °F 25.7 °F 78% 30.20 in 10.0 mi North 5.8 mph - N/A   Clear
11:55 PM 31.8 °F 25.4 °F 26.2 °F 80% 30.19 in 10.0 mi North 6.9 mph - N/A   Clear